• In Portugal
  • List of Countries
  • For 7 days
  • Water Temperature
  • Satellite Maps
  • Weather Map
  • Weather Widgets
  • user-avatar
    Login

    Hourly Weather Speshnevo

    Today, 23 July, Monday

    Time Temperature Precipitation Wind Pressure Humidity
    00:00 +18°C° 0 mm 4 mps 731 mmHg 96%
    01:00 +18°C° 0 mm 4 mps 731 mmHg 96%
    02:00 +17°C° 0 mm 5 mps 731 mmHg 97%
    03:00 +17°C° 0 mm 5 mps 731 mmHg 96%
    04:00 +17°C° 0 mm 5 mps 731 mmHg 96%
    05:00 +17°C° 0 mm 5 mps 731 mmHg 95%
    06:00 +17°C° 0 mm 5 mps 731 mmHg 94%
    07:00 +19°C° 0 mm 5 mps 732 mmHg 94%
    08:00 +19°C° 0 mm 5 mps 732 mmHg 93%
    09:00 +19°C° 0 mm 5 mps 732 mmHg 92%
    10:00 +19°C° 0 mm 5 mps 732 mmHg 90%
    11:00 +20°C° 0 mm 5 mps 732 mmHg 89%
    12:00 +20°C° 0.1 mm 5 mps 732 mmHg 88%
    13:00 +21°C° 0.1 mm 5 mps 732 mmHg 87%
    14:00 +21°C° 0.1 mm 5 mps 732 mmHg 86%
    15:00 +21°C° 0 mm 5 mps 732 mmHg 86%
    16:00 +22°C° 0 mm 5 mps 732 mmHg 86%
    17:00 +22°C° 0 mm 4 mps 732 mmHg 87%
    18:00 +21°C° 0.2 mm 4 mps 732 mmHg 89%
    19:00 +21°C° 0.2 mm 4 mps 732 mmHg 92%
    20:00 +20°C° 0.2 mm 4 mps 732 mmHg 95%
    21:00 +20°C° 1.2 mm 3 mps 732 mmHg 95%
    22:00 +19°C° 1.2 mm 3 mps 732 mmHg 96%
    23:00 +19°C° 1.2 mm 3 mps 732 mmHg 97%

    Tomorrow, 24 July, Tuesday

    Time Temperature Precipitation Wind Pressure Humidity
    00:00 +19°C° 0.3 mm 3 mps 732 mmHg 97%
    01:00 +19°C° 0.3 mm 3 mps 732 mmHg 97%
    02:00 +19°C° 0.3 mm 3 mps 732 mmHg 97%
    03:00 +19°C° 0.1 mm 3 mps 733 mmHg 97%
    04:00 +19°C° 0.1 mm 3 mps 733 mmHg 97%
    05:00 +19°C° 0.1 mm 3 mps 733 mmHg 97%
    06:00 +20°C° 0 mm 3 mps 733 mmHg 93%
    07:00 +21°C° 0 mm 3 mps 734 mmHg 89%
    08:00 +24°C° 0 mm 3 mps 734 mmHg 86%
    09:00 +25°C° 0.5 mm 3 mps 734 mmHg 81%
    10:00 +26°C° 0.5 mm 3 mps 734 mmHg 77%
    11:00 +27°C° 0.5 mm 3 mps 735 mmHg 72%
    12:00 +27°C° 1.4 mm 3 mps 735 mmHg 71%
    13:00 +27°C° 1.4 mm 3 mps 735 mmHg 70%
    14:00 +28°C° 1.4 mm 3 mps 735 mmHg 69%
    15:00 +27°C° 0.8 mm 3 mps 735 mmHg 72%
    16:00 +27°C° 0.8 mm 3 mps 735 mmHg 75%
    17:00 +27°C° 0.8 mm 3 mps 735 mmHg 79%
    18:00 +25°C° 0.2 mm 3 mps 735 mmHg 82%
    19:00 +24°C° 0.2 mm 3 mps 735 mmHg 86%
    20:00 +21°C° 0.2 mm 3 mps 736 mmHg 90%
    21:00 +21°C° 0 mm 3 mps 736 mmHg 92%
    22:00 +20°C° 0 mm 3 mps 736 mmHg 93%
    23:00 +20°C° 0 mm 3 mps 736 mmHg 95%

    Day after tomorrow, 25 July, Wednesday

    Time Temperature Precipitation Wind Pressure Humidity
    00:00 +20°C° 0.1 mm 3 mps 736 mmHg 95%
    01:00 +19°C° 0.1 mm 3 mps 736 mmHg 95%
    02:00 +19°C° 0.1 mm 3 mps 736 mmHg 95%
    03:00 +19°C° 0.3 mm 3 mps 736 mmHg 95%
    04:00 +19°C° 0.3 mm 3 mps 736 mmHg 94%
    05:00 +19°C° 0.3 mm 3 mps 736 mmHg 94%
    06:00 +20°C° 0 mm 4 mps 736 mmHg 89%
    07:00 +21°C° 0 mm 4 mps 737 mmHg 84%
    08:00 +22°C° 0 mm 5 mps 737 mmHg 79%
    09:00 +22°C° 0.3 mm 6 mps 737 mmHg 79%
    10:00 +21°C° 0.3 mm 6 mps 737 mmHg 79%
    11:00 +21°C° 0.3 mm 7 mps 737 mmHg 79%
    12:00 +21°C° 0.3 mm 7 mps 736 mmHg 80%
    13:00 +21°C° 0.3 mm 7 mps 736 mmHg 80%
    14:00 +21°C° 0.3 mm 7 mps 736 mmHg 81%
    15:00 +21°C° 0.1 mm 7 mps 736 mmHg 80%
    16:00 +22°C° 0.1 mm 6 mps 736 mmHg 79%
    17:00 +22°C° 0.1 mm 6 mps 736 mmHg 79%
    18:00 +22°C° 0.2 mm 6 mps 736 mmHg 79%
    19:00 +21°C° 0.2 mm 6 mps 736 mmHg 80%
    20:00 +20°C° 0.2 mm 6 mps 737 mmHg 81%
    21:00 +20°C° 0.1 mm 6 mps 737 mmHg 81%
    22:00 +20°C° 0.1 mm 5 mps 737 mmHg 82%
    23:00 +19°C° 0.1 mm 5 mps 737 mmHg 83%

    26 July, Thursday

    Time Temperature Precipitation Wind Pressure Humidity
    00:00 +19°C° 0.1 mm 5 mps 737 mmHg 84%
    01:00 +19°C° 0.1 mm 4 mps 737 mmHg 85%
    02:00 +18°C° 0.1 mm 4 mps 737 mmHg 86%
    03:00 +18°C° 0.1 mm 4 mps 737 mmHg 86%
    04:00 +18°C° 0.1 mm 4 mps 737 mmHg 86%
    05:00 +18°C° 0.1 mm 4 mps 737 mmHg 86%
    06:00 +19°C° 0 mm 5 mps 738 mmHg 84%
    07:00 +20°C° 0 mm 5 mps 738 mmHg 81%
    08:00 +21°C° 0 mm 5 mps 738 mmHg 78%
    09:00 +23°C° 0 mm 5 mps 738 mmHg 76%
    10:00 +25°C° 0 mm 5 mps 738 mmHg 73%
    11:00 +26°C° 0 mm 5 mps 739 mmHg 70%
    12:00 +26°C° 0 mm 5 mps 739 mmHg 70%
    13:00 +27°C° 0 mm 6 mps 739 mmHg 69%
    14:00 +27°C° 0 mm 6 mps 739 mmHg 68%
    15:00 +26°C° 0 mm 6 mps 739 mmHg 71%
    16:00 +26°C° 0 mm 5 mps 739 mmHg 73%
    17:00 +25°C° 0 mm 5 mps 739 mmHg 75%
    18:00 +23°C° 0 mm 5 mps 739 mmHg 78%
    19:00 +23°C° 0 mm 5 mps 739 mmHg 80%
    20:00 +22°C° 0 mm 5 mps 739 mmHg 83%
    21:00 +22°C° 0.1 mm 4 mps 739 mmHg 85%
    22:00 +21°C° 0.1 mm 4 mps 740 mmHg 87%
    23:00 +21°C° 0.1 mm 3 mps 740 mmHg 88%

    27 July, Friday

    Time Temperature Precipitation Wind Pressure Humidity
    00:00 +20°C° 0.1 mm 3 mps 740 mmHg 89%
    01:00 +20°C° 0.1 mm 3 mps 740 mmHg 89%
    02:00 +20°C° 0.1 mm 3 mps 740 mmHg 90%
    03:00 +20°C° 0.4 mm 3 mps 740 mmHg 89%
    04:00 +20°C° 0.4 mm 4 mps 740 mmHg 89%
    05:00 +20°C° 0.4 mm 4 mps 741 mmHg 89%
    06:00 +21°C° 0 mm 4 mps 741 mmHg 85%
    07:00 +21°C° 0 mm 5 mps 741 mmHg 82%
    08:00 +22°C° 0 mm 5 mps 741 mmHg 78%
    09:00 +22°C° 0 mm 5 mps 741 mmHg 77%
    10:00 +23°C° 0 mm 5 mps 741 mmHg 75%
    11:00 +23°C° 0 mm 5 mps 741 mmHg 74%
    12:00 +25°C° 0 mm 5 mps 741 mmHg 72%
    13:00 +26°C° 0 mm 5 mps 741 mmHg 71%
    14:00 +27°C° 0 mm 5 mps 741 mmHg 69%
    15:00 +27°C° 0 mm 5 mps 741 mmHg 72%
    16:00 +27°C° 0 mm 4 mps 741 mmHg 74%
    17:00 +27°C° 0 mm 3 mps 741 mmHg 76%
    18:00 +26°C° 0 mm 3 mps 741 mmHg 79%
    19:00 +24°C° 0 mm 3 mps 741 mmHg 81%
    20:00 +22°C° 0 mm 3 mps 741 mmHg 84%
    21:00 +22°C° 0 mm 3 mps 741 mmHg 84%
    22:00 +21°C° 0 mm 3 mps 741 mmHg 85%
    23:00 +21°C° 0 mm 3 mps 741 mmHg 86%

    28 July, Saturday

    Time Temperature Precipitation Wind Pressure Humidity
    00:00 +20°C° 0 mm 3 mps 741 mmHg 88%
    01:00 +20°C° 0 mm 3 mps 741 mmHg 89%
    02:00 +19°C° 0 mm 3 mps 741 mmHg 91%
    03:00 +19°C° 0 mm 3 mps 741 mmHg 91%
    04:00 +19°C° 0 mm 3 mps 741 mmHg 90%
    05:00 +19°C° 0 mm 3 mps 741 mmHg 89%
    06:00 +21°C° 0 mm 3 mps 741 mmHg 86%
    07:00 +22°C° 0 mm 4 mps 741 mmHg 82%
    08:00 +23°C° 0 mm 4 mps 741 mmHg 79%
    09:00 +25°C° 0.3 mm 4 mps 741 mmHg 76%
    10:00 +26°C° 0.3 mm 5 mps 741 mmHg 73%
    11:00 +27°C° 0.3 mm 5 mps 741 mmHg 69%
    12:00 +27°C° 0.3 mm 4 mps 741 mmHg 67%
    13:00 +28°C° 0.3 mm 4 mps 741 mmHg 65%
    14:00 +29°C° 0.3 mm 4 mps 741 mmHg 62%
    15:00 +28°C° 0.3 mm 3 mps 741 mmHg 65%
    16:00 +28°C° 0.3 mm 3 mps 741 mmHg 68%
    17:00 +28°C° 0.3 mm 3 mps 741 mmHg 71%
    18:00 +27°C° 0.1 mm 3 mps 741 mmHg 75%
    19:00 +25°C° 0.1 mm 3 mps 741 mmHg 78%
    20:00 +22°C° 0.1 mm 3 mps 741 mmHg 82%
    21:00 +21°C° 0 mm 3 mps 741 mmHg 83%
    22:00 +21°C° 0 mm 3 mps 741 mmHg 84%
    23:00 +20°C° 0 mm 3 mps 741 mmHg 85%
    Show more